Tracking 19181 objects as of 18-Jun-2018
HD Live streaming from Space Station
objects crossing your sky now

HOOPOE

Track HOOPOE now!
10-day predictions
HOOPOE is classified as:


NORAD ID: 42718
Int'l Code: 1998-067LZ
Perigee: 354.3 km
Apogee: 358.0 km
Inclination: 51.6 °
Period: 91.5 minutes
Semi major axis: 6727 km
RCS: Unknown
Launch date: November 20, 1998
Source: (TBD)
Launch site: TYURATAM MISSILE AND SPACE COMPLEX (TTMTR)
Uplink (MHz):
Downlink (MHz): 437.740
Beacon (MHz):
Mode: 9600bps BPSK
Call sign: ON01IL
Status: Active

aabbcc
Your satellite tracking list
Your tracking list is empty




NASA's NSSDC Master Catalog

Two Line Element Set (TLE):
1 42718U 98067LZ  18168.83362521  .00029713  00000-0  21258-3 0  9999
2 42718  51.6356 349.7795 0002731 235.4568 124.6173 15.73465761 61084
Source of the keplerian elements: AFSPC